Regional Weather Roundup
Issued by NWS Charleston, SC

Current Version | Previous Version | Graphics & Text | Print | Product List | Glossary On
Versions: 1 2 3 4 5 6 7 8 9 10 11 12 13 14 15 16 17 18 19 20 21 22 23 24 25 26 27 28 29 30 31 32 33 34 35 36 37 38 39 40 41 42 43 44 45 46 47 48 49 50
000
ASUS42 KCHS 160427
RWRCHS

Regional Weather Roundup
National Weather Service Charleston SC
1100 PM EST FRI DEC 15 2017

NOTE: "fair" indicates few or no clouds below 12,000 feet with no
significant weather and/or obstructions to visibility.

Not all stations are quality controlled. Use data with caution,
especially dewpoint observations.

SCZ027-030-031-034>040-042>050-160500-
...Southeast South Carolina...

CITY           SKY/WX    TMP DP  RH WIND       PRES   REMARKS
N Charleston   CLOUDY    51  33  50 NW9       30.12R
Waterfront Prk   N/A     54  37  52 NW7       29.97R
Mount Pleasant FAIR      52  36  54 NW7       30.12R
Johns Island   FAIR      52  32  46 NW13G18   30.12S
Pinopolis        N/A     52  37  58 NW14      30.04R
Moncks Corner  FAIR      48  28  46 CALM      30.12R
Summerville    FAIR      50  32  50 NW3       30.13S
Beaufort MCAS  CLOUDY    51  33  50 NW9       30.14R
Beaufort Arpt  FAIR      50  32  50 NW16      30.15R
Hilton Head Is PTCLDY    52  32  46 VRB6G15   30.15R
Walterboro     CLOUDY    46  32  57 NW7       30.15R
Allendale      FAIR      43  27  52 CALM      30.17R

...Southern Midlands and Pee Dee...

CITY           SKY/WX    TMP DP  RH WIND       PRES   REMARKS
Georgetown     FAIR      48  34  57 N9        30.13R
Kingstree      FAIR      41  36  81 CALM      30.13R
Orangeburg     CLOUDY    44  26  49 NW7       30.15R
Barnwell         N/A     43  27  52 CALM      30.17R
Aiken          FAIR      34  27  75 W3        30.18R
Manning        FAIR      46 -31   3 MISG      30.13S
Columbia       PTCLDY    40  29  64 W6        30.15R WCI  36
Sumter         PTCLDY    43  30  60 W6        30.11R
Florence       PTCLDY    39  32  76 N3        30.13R
Myrtle Beach   CLOUDY    48  33  56 N9        30.11R
N Myrtle Beach CLOUDY    48  34  58 NW3       30.11R

$$

GAZ063-065-086>088-099>101-113>116-118-119-134>141-150-160500-
...Southeast Georgia...

CITY           SKY/WX    TMP DP  RH WIND       PRES   REMARKS
Savannah Arpt  CLOUDY    50  32  50 W9        30.16R
Hunter AAF     CLOUDY    51  33  50 W13         N/A
Fort Stewart   CLOUDY    50  32  51 W7          N/A
Statesboro     CLOUDY    46  24  41 NW9       30.19R
Sylvania       CLOUDY    46  31  56 NW10      30.19R
Claxton        FAIR      49  31  50 W9        30.18R

...CSRA, Central and far Southeast Georgia...

CITY           SKY/WX    TMP DP  RH WIND       PRES   REMARKS
Thomson        PTCLDY    35  24  63 NW5       30.23R WCI  31
Augusta-Bush   PTCLDY    38  25  59 W7        30.18R WCI  33
Augusta-Daniel CLOUDY    41  24  51 W7        30.17R
Swainsboro     FAIR      41  28  60 NW9       30.20R
Vidalia        CLOUDY    46  30  53 NW5       30.20R
Eastman        FAIR      42  19  38 W3        30.25R
Hazlehurst     MOCLDY    47  20  33 NW3       30.20R
Alma           CLOUDY    48  34  58 NW7       30.20R
Waycross       CLOUDY    50  31  48 NW10      30.21R
Jesup          FAIR      52  36  54 NW3       30.18
Baxley         MOCLDY    45  32  61 NW6       30.19R
Brunswick      CLOUDY    52  39  62 W6        30.16F
Saint Simons   CLOUDY    54  42  64 W7        30.16R

$$

SCZ027-028-034-036>038-045-046-048>050-GAZ119-141-160500-
...Lake and Supplemental Coastal Observations...

STATION/POSITION TIME  TEMP    WIND        PRES    WAVE   SWELL
                       AIR SEA DIR/SP/G            HT/PER HT/PER/DIR
                 (UTC) (F)     (DEG/KT/KT) (MB)    (FT/S) (FT/S/D)
Winyah Bay       0330   53     290/  7     1019.0R
Lake Murray      0350   42     280/  9/ 13 1020.0R
ACE Basin NERRS  0345   51     290/  3     1020.0R
Fort Pulaski     0400   52 53  300/ 14/ 16 1020.9
Sapelo Island    0400   53     300/  8     1021.0

$$

ANZ835-935-AMZ111-154-330-350-352-354-370-450-454-472-160500-
...C-MAN and Buoy Observations...

STATION/POSITION TIME  TEMP    WIND        PRES    WAVE   SWELL
                       AIR SEA DIR/SP/G            HT/PER HT/PER/DIR
                 (UTC) (F)     (DEG/KT/KT) (MB)    (FT/S) (FT/S/D)
Buoy 41004       0410   58 72  300/ 17/ 23 1018.9
Buoy 41008       0350   55 58  280/ 17/ 21 1020.9R   2/ 3
Folly Beach CMAN 0400   52     300/  6/  9 1020.8R
Capers Nearshore 0408   51 56  310/ 14/ 17 1019.6R


STATION/POSITION TIME  TEMP    WIND        PRES    WAVE   SWELL
                       AIR SEA DIR/SP/G            HT/PER HT/PER/DIR
                 (UTC) (F)     (DEG/KT/KT) (MB)    (FT/S) (FT/S/D)
5E St. Marys GA  0400      62                N/A     2/ 3
Frying Pan Buoy  0410   56 68  350/ 17/ 21 1018.6
Buoy 41025       0410   47 73  320/ 23/ 29 1017.9
Cape Lookout NC  0400          330/ 15/ 20 1018.8R
Buoy 41002       0350   71 75  260/ 21/ 27 1016.2R   8/ 7
Buoy 41010       NOT AVBL
St Augustine FL  0400   58 64  290/  4/  5 1021.7R


$$



USA.gov is the U.S. government's official web portal to all federal, state and local government web resources and services.